Powrót do katalogu

SL-8 DEB

AktywnyPO
NORAD 37632·DEBRIS·🇷🇺 Russia

Wystrzelony Oct 19, 1982 z Plesetsk Cosmodrome

Loading…

Następne Przeloty (najbliższe 24 godziny)

TLE

Starzejące sięSource: Space-Track

Epoka: Sep 8, 2026, 10:43 UTC

1 37632U 82102C   26251.44721459  .00000294  00000-0  26327-3 0  9994
2 37632  82.9657 148.8083 0031805   9.1486 351.0246 13.80924668597354

Śledź SL-8 DEB w czasie rzeczywistym z AllMySat

Download on the App Store